AI5BL Weather Reports


Display with metric or nautical units.
time (UTC)temp
F
wind
direction
speed
MPH
gust
MPH
rain 1hr
in
rain 24hr
in
rain mn
in
humidity
%
barometer
mb
20260510115529 62 53 1.0 1.0 0.00 0.00 0.00 99 1018.2
20260510115026 62 62 0.0 0.0 0.00 0.00 0.00 99 1018.1
20260510114522 62 70 0.0 0.0 0.00 0.00 0.00 99 1017.9
20260510114018 62 64 0.0 0.0 0.00 0.00 0.00 99 1018.1
20260510113513 62 79 0.0 0.0 0.00 0.00 0.00 99 1017.9
20260510113011 61 79 0.0 0.0 0.00 0.00 0.00 99 1017.9
20260510112508 61 79 0.0 0.0 0.00 0.00 0.00 99 1017.8
20260510112004 61 81 0.0 0.0 0.00 0.00 0.00 99 1017.9
20260510111500 61 81 0.0 0.0 0.00 0.00 0.00 99 1017.6
20260510110956 62 81 0.0 0.0 0.00 0.00 0.00 99 1017.4
20260510110453 61 80 0.0 0.0 0.00 0.00 0.00 99 1017.5
20260510105949 61 80 0.0 0.0 0.00 0.00 0.00 99 1017.2
20260510105444 61 80 0.0 0.0 0.00 0.00 0.00 99 1017.2
20260510104940 61 80 0.0 0.0 0.00 0.00 0.00 99 1017.2
20260510104437 61 81 0.0 0.0 0.00 0.00 0.00 99 1016.9
20260510103933 61 80 0.0 0.0 0.00 0.00 0.00 99 1016.9
20260510103431 61 81 0.0 0.0 0.00 0.00 0.00 99 1016.9
20260510102927 61 80 0.0 0.0 0.00 0.00 0.00 99 1016.9
20260510102423 61 80 0.0 0.0 0.00 0.00 0.00 99 1016.8
20260510101920 61 80 0.0 0.0 0.00 0.00 0.00 99 1016.8
20260510101417 61 80 0.0 0.0 0.00 0.00 0.00 99 1016.8
20260510100915 61 75 0.0 0.0 0.00 0.00 0.00 99 1016.9
20260510100412 61 75 0.0 0.0 0.00 0.00 0.00 99 1016.8
20260510095908 61 75 0.0 0.0 0.00 0.00 0.00 99 1016.7
20260510095403 62 79 0.0 0.0 0.00 0.00 0.00 99 1016.6
20260510094902 62 88 0.0 0.0 0.00 0.00 0.00 99 1016.4
20260510094358 62 88 0.0 0.0 0.00 0.00 0.00 99 1016.4
20260510093854 62 88 0.0 0.0 0.00 0.00 0.00 99 1016.4
20260510093349 62 92 0.0 0.0 0.00 0.00 0.00 99 1016.5
20260510092846 62 92 0.0 0.0 0.00 0.00 0.00 99 1016.4
20260510092343 62 92 0.0 0.0 0.00 0.00 0.00 99 1016.7
20260510091838 62 92 0.0 0.0 0.00 0.00 0.00 99 1016.6
20260510091335 62 92 0.0 0.0 0.00 0.00 0.00 99 1016.7
20260510090832 62 92 0.0 0.0 0.00 0.00 0.00 99 1016.6
20260510090328 62 92 0.0 0.0 0.00 0.00 0.00 99 1016.3
20260510085824 62 88 0.0 0.0 0.00 0.00 0.00 99 1016.5
20260510085324 62 88 0.0 0.0 0.00 0.00 0.00 99 1016.5
20260510084820 62 88 0.0 0.0 0.00 0.00 0.00 99 1016.3
20260510084317 62 88 0.0 0.0 0.00 0.00 0.00 99 1016.3
20260510083814 62 88 0.0 0.0 0.00 0.00 0.00 99 1016.3
20260510083311 62 88 0.0 0.0 0.00 0.00 0.00 99 1016.2
20260510082806 62 88 0.0 0.0 0.00 0.00 0.00 99 1016.1
20260510082306 62 88 0.0 0.0 0.00 0.00 0.00 99 1016.4
20260510081802 62 88 0.0 0.0 0.00 0.00 0.00 99 1016.1
20260510081258 62 88 0.0 0.0 0.00 0.00 0.00 99 1016.1
20260510080754 62 88 0.0 0.0 0.00 0.00 0.00 99 1016.2
20260510080249 62 88 0.0 0.0 0.00 0.00 0.00 99 1016.1
20260510075747 62 88 0.0 0.0 0.00 0.00 0.00 99 1015.9
20260510075244 62 88 0.0 0.0 0.00 0.00 0.00 99 1016.0
20260510074741 62 88 0.0 0.0 0.00 0.00 0.00 99 1015.8
20260510074237 62 88 0.0 0.0 0.00 0.00 0.00 99 1016.0
20260510073734 62 88 0.0 0.0 0.00 0.00 0.00 99 1015.7
20260510073230 62 87 0.0 0.0 0.00 0.00 0.00 99 1015.8
20260510072725 62 87 0.0 0.0 0.00 0.00 0.00 99 1015.8
20260510072222 62 102 0.0 0.0 0.00 0.00 0.00 99 1015.7
20260510071719 62 103 0.0 0.0 0.00 0.00 0.00 99 1015.7
20260510071216 63 103 0.0 0.0 0.00 0.00 0.00 99 1015.8
20260510070714 63 103 0.0 0.0 0.00 0.00 0.00 99 1015.6
20260510070211 63 103 0.0 0.0 0.00 0.00 0.00 99 1015.5
20260510065706 63 103 0.0 0.0 0.00 0.00 0.00 99 1015.8
20260510065202 63 103 0.0 0.0 0.00 0.00 0.00 99 1015.6
20260510064659 63 103 0.0 0.0 0.00 0.00 0.00 99 1015.4
20260510064156 63 103 0.0 0.0 0.00 0.00 0.00 99 1015.4
20260510063653 63 103 0.0 0.0 0.00 0.00 0.00 99 1015.5
20260510063149 63 103 0.0 0.0 0.00 0.00 0.00 99 1015.2
20260510062646 63 103 0.0 0.0 0.00 0.00 0.00 99 1015.1
20260510062142 63 103 0.0 0.0 0.00 0.00 0.00 99 1015.0
20260510061637 63 104 0.0 0.0 0.00 0.00 0.00 99 1015.2
20260510061135 63 79 0.0 0.0 0.00 0.00 0.00 99 1015.1
20260510060631 63 80 0.0 0.0 0.00 0.00 0.00 99 1015.3
20260510060127 63 80 0.0 0.0 0.00 0.00 0.00 99 1015.4
20260510055624 63 78 0.0 0.0 0.00 0.00 0.00 99 1015.4
20260510055122 63 78 0.0 0.0 0.00 0.00 0.00 99 1015.7
20260510054617 63 78 0.0 0.0 0.00 0.00 0.00 99 1015.5
20260510054112 63 78 0.0 0.0 0.00 0.00 0.00 99 1015.6
20260510053612 63 78 0.0 0.0 0.00 0.00 0.00 99 1015.9
20260510053109 63 78 0.0 0.0 0.00 0.00 0.00 99 1015.8
20260510052605 63 96 0.0 0.0 0.00 0.00 0.00 99 1015.8
20260510052102 63 96 0.0 0.0 0.00 0.00 0.00 99 1016.0
20260510051557 64 96 0.0 0.0 0.00 0.00 0.00 99 1016.0
20260510051054 64 96 0.0 0.0 0.00 0.00 0.00 99 1015.9
20260510050551 64 96 0.0 0.0 0.00 0.00 0.00 99 1015.8
20260510050048 64 96 0.0 0.0 0.00 0.00 0.00 99 1015.9
20260510045540 64 96 0.0 0.0 0.00 0.99 0.99 99 1015.9
20260510045036 64 96 0.0 0.0 0.00 0.99 0.99 99 1016.1
20260510044533 64 97 0.0 0.0 0.00 0.99 0.99 99 1016.3
20260510044031 64 97 0.0 0.0 0.00 0.99 0.99 99 1016.2
20260510043526 64 97 0.0 0.0 0.00 0.99 0.99 99 1016.4
20260510043021 64 93 0.0 0.0 0.00 0.99 0.99 99 1016.6
20260510042516 64 93 0.0 0.0 0.00 0.99 0.99 99 1016.5
20260510042016 64 93 0.0 0.0 0.00 0.99 0.99 99 1016.2
20260510041514 64 94 0.0 0.0 0.00 0.99 0.99 99 1016.6
20260510041011 64 94 0.0 0.0 0.00 0.99 0.99 99 1016.4
20260510040508 64 88 0.0 0.0 0.00 0.99 0.99 99 1016.2
20260510040003 64 71 0.0 0.0 0.00 0.99 0.99 99 1015.9
20260510035500 64 90 0.0 0.0 0.00 0.99 0.99 99 1016.3
20260510034959 64 90 0.0 0.0 0.00 0.99 0.99 99 1016.6
20260510034459 64 89 0.0 0.0 0.00 0.99 0.99 99 1016.4
20260510033954 64 90 0.0 0.0 0.00 0.99 0.99 99 1016.4
20260510033450 64 77 0.0 0.0 0.00 0.99 0.99 99 1016.4
20260510032948 64 77 0.0 0.0 0.00 0.99 0.99 99 1016.2
20260510032445 64 76 0.0 0.0 0.00 0.99 0.99 99 1016.0
20260510031944 64 77 0.0 0.0 0.00 0.99 0.99 99 1016.0
20260510031440 64 77 0.0 0.0 0.00 0.99 0.99 99 1016.1
20260510030936 64 76 0.0 1.0 0.00 0.99 0.99 99 1016.2
20260510030432 65 94 0.0 0.0 0.00 0.99 0.99 99 1016.4
20260510025929 65 94 0.0 0.0 0.00 0.99 0.99 99 1016.2
20260510025427 65 94 0.0 0.0 0.00 0.99 0.99 99 1016.3
20260510024924 65 95 0.0 0.0 0.00 0.99 0.99 99 1016.1
20260510024420 65 95 0.0 0.0 0.00 0.99 0.99 99 1016.4
20260510023916 65 95 0.0 0.0 0.00 0.99 0.99 99 1016.2
20260510023413 65 95 0.0 1.0 0.00 0.99 0.99 99 1016.0
20260510022910 65 78 0.0 0.0 0.00 0.99 0.99 99 1016.2
20260510022409 65 78 0.0 0.0 0.00 0.99 0.99 99 1016.1
20260510021908 65 70 0.0 0.0 0.00 0.99 0.99 99 1016.1
20260510021406 66 83 0.0 0.0 0.00 0.99 0.99 99 1015.8
20260510020903 66 83 0.0 0.0 0.00 0.99 0.99 99 1016.0
20260510020357 66 86 0.0 0.0 0.00 0.99 0.99 99 1015.8
20260510015853 66 83 0.0 0.0 0.00 0.99 0.99 99 1016.1
20260510015349 66 83 0.0 0.0 0.00 0.99 0.99 99 1016.0
20260510014845 66 55 1.0 2.0 0.00 0.99 0.99 99 1015.9
20260510014343 66 95 0.0 1.0 0.00 0.99 0.99 99 1015.6
20260510013839 66 113 1.0 1.0 0.00 0.99 0.99 99 1015.8
20260510013334 66 82 0.0 0.0 0.00 0.99 0.99 98 1016.0
20260510012829 66 64 0.0 0.0 0.00 0.99 0.99 98 1015.8
20260510012329 66 99 0.0 0.0 0.00 0.99 0.99 98 1015.7
20260510011824 66 101 0.0 0.0 0.00 0.99 0.99 98 1015.7
20260510011320 66 83 0.0 0.0 0.00 0.99 0.99 98 1015.5
20260510010817 66 75 0.0 1.0 0.00 0.99 0.99 99 1015.7
20260510010314 67 80 0.0 0.0 0.00 0.99 0.99 99 1015.6
20260510005810 67 90 0.0 0.0 0.00 0.99 0.99 99 1015.4
20260510005307 66 99 0.0 1.0 0.00 0.99 0.99 99 1015.5
20260510004805 67 98 0.0 0.0 0.00 0.99 0.99 99 1015.5
20260510004302 67 110 1.0 1.0 0.00 0.99 0.99 98 1015.5
20260510003759 67 81 0.0 0.0 0.00 0.99 0.99 98 1015.7
20260510003256 67 80 0.0 0.0 0.00 0.99 0.99 98 1015.3
20260510002754 67 97 0.0 0.0 0.00 0.99 0.99 98 1015.3
20260510002252 67 90 0.0 0.0 0.00 0.99 0.99 98 1015.1
20260510001749 67 90 0.0 0.0 0.00 0.99 0.99 98 1014.7
20260510001247 67 101 0.0 0.0 0.00 0.99 0.99 98 1014.6
20260510000742 67 100 0.0 0.0 0.00 0.99 0.99 97 1014.7
20260510000241 67 103 0.0 1.0 0.00 0.99 0.99 97 1014.7
20260509235737 68 99 0.0 0.0 0.00 0.99 0.99 97 1014.7
20260509235233 68 100 0.0 0.0 0.00 0.99 0.99 97 1014.6
20260509234729 68 110 0.0 1.0 0.00 0.99 0.99 96 1014.6
20260509234227 68 101 0.0 0.0 0.00 0.99 0.99 96 1014.8
20260509233725 68 90 0.0 0.0 0.00 0.99 0.99 96 1014.8
20260509233222 68 98 0.0 0.0 0.00 0.99 0.99 96 1014.7
20260509232718 68 83 0.0 1.0 0.00 0.99 0.99 96 1014.5
20260509232215 68 96 0.0 0.0 0.00 0.99 0.99 96 1014.7
20260509231711 68 96 0.0 0.0 0.00 0.99 0.99 96 1014.6
20260509231209 68 99 0.0 0.0 0.00 0.99 0.99 96 1014.6
20260509230707 68 103 0.0 0.0 0.00 0.99 0.99 96 1014.5
20260509230203 68 101 0.0 1.0 0.00 0.99 0.99 96 1014.4
20260509225659 68 105 0.0 0.0 0.00 0.99 0.99 96 1014.4
20260509225154 68 55 1.0 1.0 0.00 0.99 0.99 97 1014.4
20260509224645 68 108 0.0 1.0 0.00 0.99 0.99 97 1014.5
20260509224142 68 107 0.0 0.0 0.00 0.99 0.99 97 1014.5
20260509223638 68 106 0.0 0.0 0.00 0.99 0.99 97 1014.4
20260509223136 68 82 0.0 0.0 0.00 0.99 0.99 97 1014.2
20260509222633 68 96 0.0 0.0 0.00 0.99 0.99 97 1014.3
20260509222127 68 101 0.0 0.0 0.00 0.99 0.99 97 1014.1
20260509221624 68 90 0.0 0.0 0.00 0.99 0.99 97 1014.0
20260509221115 68 126 1.0 1.0 0.00 0.99 0.99 96 1013.7
20260509220610 68 107 1.0 1.0 0.00 0.99 0.99 96 1014.0
20260509220107 69 100 0.0 1.0 0.00 0.99 0.99 96 1014.1
20260509215603 68 91 0.0 1.0 0.00 0.99 0.99 95 1013.8
20260509215100 69 98 0.0 0.0 0.00 0.99 0.99 96 1014.0
20260509214557 68 107 0.0 1.0 0.00 0.99 0.99 95 1013.6
20260509214054 69 101 1.0 1.0 0.00 0.99 0.99 95 1013.6
20260509213549 69 95 0.0 0.0 0.00 0.99 0.99 95 1013.7
20260509213046 69 99 0.0 1.0 0.00 0.99 0.99 95 1013.5
20260509212544 69 98 0.0 0.0 0.00 0.99 0.99 95 1014.1
20260509212041 69 96 0.0 1.0 0.00 0.99 0.99 94 1013.7
20260509211536 69 88 0.0 0.0 0.00 0.99 0.99 94 1013.7
20260509211033 68 102 0.0 1.0 0.00 0.99 0.99 95 1013.8
20260509210530 68 78 1.0 1.0 0.00 0.99 0.99 95 1014.3
20260509210026 69 101 0.0 1.0 0.00 0.99 0.99 96 1014.0
20260509205526 69 111 0.0 0.0 0.00 0.99 0.99 96 1014.1
20260509205021 69 97 0.0 0.0 0.00 0.99 0.99 95 1014.1
20260509204518 69 68 0.0 1.0 0.00 0.99 0.99 95 1014.0
20260509204014 69 100 0.0 0.0 0.00 0.99 0.99 95 1014.2
20260509203510 70 104 0.0 0.0 0.00 0.99 0.99 94 1014.0
20260509203009 69 94 0.0 0.0 0.00 0.99 0.99 95 1013.8
20260509202509 70 108 0.0 1.0 0.00 0.99 0.99 95 1013.7
20260509202004 69 99 0.0 0.0 0.00 0.99 0.99 94 1014.0
20260509201459 69 94 0.0 0.0 0.00 0.99 0.99 93 1014.1
20260509200957 70 113 1.0 1.0 0.00 0.99 0.99 94 1013.8
20260509200452 70 99 0.0 0.0 0.00 0.99 0.99 93 1014.0
20260509195948 70 97 0.0 0.0 0.00 0.99 0.99 94 1014.2
20260509195444 70 97 0.0 0.0 0.00 0.99 0.99 92 1014.2
20260509194944 70 102 0.0 0.0 0.00 0.99 0.99 92 1014.0
20260509194440 70 92 0.0 0.0 0.00 0.99 0.99 92 1014.2
20260509193937 70 98 0.0 0.0 0.00 0.99 0.99 93 1014.2
20260509193436 70 72 0.0 1.0 0.00 0.99 0.99 92 1014.5
20260509192933 71 94 0.0 0.0 0.00 0.99 0.99 91 1014.5
20260509192429 70 93 0.0 0.0 0.00 0.99 0.99 93 1014.3
20260509191924 70 101 0.0 1.0 0.00 0.99 0.99 93 1014.2
20260509191420 70 96 0.0 0.0 0.00 0.99 0.99 93 1014.0
20260509190916 69 88 0.0 0.0 0.00 0.99 0.99 93 1014.1
20260509190414 69 129 1.0 1.0 0.00 0.99 0.99 91 1014.1
20260509185911 70 107 0.0 0.0 0.00 0.99 0.99 92 1014.2
20260509185408 69 50 1.0 1.0 0.00 0.99 0.99 93 1014.2
20260509184905 69 108 0.0 0.0 0.00 0.99 0.99 95 1014.2
20260509184401 69 110 0.0 1.0 0.00 0.99 0.99 94 1014.1
20260509183859 69 105 0.0 1.0 0.00 0.99 0.99 94 1014.0
20260509183353 70 80 0.0 1.0 0.00 0.99 0.99 91 1014.2
20260509182849 69 82 0.0 0.0 0.00 0.99 0.99 93 1014.2
20260509182347 69 102 0.0 1.0 0.00 0.99 0.99 95 1014.1
20260509181844 69 98 0.0 1.0 0.00 0.99 0.99 93 1014.1
20260509181341 69 88 0.0 1.0 0.00 0.99 0.99 95 1014.1
20260509180839 69 97 0.0 0.0 0.00 0.99 0.99 96 1014.0
20260509180334 68 106 0.0 1.0 0.00 0.99 0.99 96 1013.8
20260509175832 68 92 0.0 1.0 0.00 0.99 0.99 97 1014.0
20260509175328 68 99 0.0 0.0 0.00 0.99 0.99 97 1014.0
20260509174823 67 101 0.0 0.0 0.00 0.99 0.99 97 1014.0
20260509174319 67 84 0.0 0.0 0.00 0.99 0.99 99 1014.1
20260509173816 67 99 0.0 1.0 0.00 0.99 0.99 99 1014.1
20260509173311 67 102 0.0 0.0 0.00 0.99 0.99 99 1014.3
20260509172807 67 97 0.0 0.0 0.00 0.99 0.99 99 1014.4
20260509172306 66 94 0.0 0.0 0.00 0.99 0.99 99 1014.8
20260509171800 67 104 0.0 0.0 0.00 0.99 0.99 99 1014.9
20260509171256 66 102 0.0 0.0 0.00 0.99 0.99 99 1015.2
20260509170753 66 96 0.0 0.0 0.00 0.99 0.99 99 1015.2
20260509170249 67 77 0.0 0.0 0.00 0.99 0.99 99 1015.1
20260509165748 67 90 0.0 0.0 0.00 0.99 0.99 99 1015.3
20260509165243 66 109 0.0 1.0 0.00 0.99 0.99 99 1015.5
20260509164739 67 95 0.0 0.0 0.00 0.99 0.99 99 1015.6
20260509164235 66 97 0.0 0.0 0.00 0.99 0.99 99 1015.5
20260509163732 66 102 0.0 0.0 0.00 0.99 0.99 99 1015.5
20260509163229 65 106 0.0 0.0 0.00 0.99 0.99 99 1015.4
20260509162727 65 74 0.0 1.0 0.00 0.99 0.99 99 1015.3
20260509162221 65 95 0.0 0.0 0.00 0.99 0.99 99 1015.3
20260509161717 65 105 0.0 0.0 0.00 0.99 0.99 99 1015.2
20260509161214 65 90 0.0 0.0 0.00 0.99 0.99 99 1015.0
20260509160709 64 99 0.0 0.0 0.00 0.99 0.99 99 1014.9
20260509160206 64 65 0.0 1.0 0.00 0.99 0.99 99 1014.9
20260509155701 64 90 0.0 0.0 0.00 0.99 0.99 99 1015.0
20260509155157 65 57 1.0 1.0 0.00 0.99 0.99 99 1015.0
20260509154653 64 83 0.0 0.0 0.00 0.99 0.99 99 1015.1
20260509154151 64 64 1.0 1.0 0.00 0.99 0.99 99 1015.2
20260509153647 64 59 0.0 1.0 0.00 0.99 0.99 99 1014.9
20260509153144 0 0.0 0.0 0.00 0.00 0.00 1015.2
20260509152640 63 67 1.0 2.0 0.00 0.99 0.99 99 1015.2
20260509152137 63 67 1.0 2.0 0.00 0.99 0.99 99 1014.9
20260509151634 63 67 1.0 2.0 0.00 0.99 0.99 99 1014.9
20260509151131 63 67 1.0 2.0 0.00 0.99 0.99 99 1014.8
20260509150629 63 67 1.0 2.0 0.00 0.99 0.99 99 1014.8
20260509150127 63 67 1.0 2.0 0.00 0.99 0.99 99 1015.0
20260509145623 63 67 1.0 2.0 0.00 0.99 0.99 99 1014.8
20260509145118 63 67 1.0 2.0 0.00 0.99 0.99 99 1014.5
20260509144615 63 67 1.0 2.0 0.00 0.99 0.99 99 1015.0
20260509144112 63 67 1.0 2.0 0.00 0.99 0.99 99 1014.8
20260509143609 63 67 1.0 2.0 0.00 0.99 0.99 99 1014.9
20260509143107 63 67 1.0 2.0 0.12 0.99 0.99 99 1014.2
20260509142602 63 128 0.0 1.0 0.00 0.97 0.97 99 1014.4
20260509142058 63 128 0.0 1.0 0.00 0.97 0.97 99 1014.6
20260509141555 63 128 0.0 1.0 0.00 0.97 0.97 99 1014.5
20260509141051 63 128 0.0 1.0 0.42 0.97 0.97 99 1014.5
20260509140548 63 155 2.0 2.0 0.31 0.95 0.95 99 1014.5
20260509140046 63 104 0.0 0.0 0.00 0.90 0.90 99 1014.5
20260509135543 63 104 0.0 0.0 0.12 0.90 0.90 99 1014.7
20260509135041 63 104 0.0 0.0 0.12 0.90 0.90 99 1014.8
20260509134538 63 113 1.0 2.0 0.05 0.88 0.88 99 1014.4
20260509134035 63 90 0.0 0.0 0.19 0.88 0.88 99 1014.7
20260509133532 63 104 2.0 2.0 0.05 0.85 0.85 99 1014.4
20260509133030 63 104 2.0 2.0 0.12 0.85 0.85 99 1014.5
20260509132528 63 122 2.0 2.0 0.24 0.84 0.84 99 1015.0
20260509132026 63 90 1.0 2.0 0.28 0.83 0.83 99 1015.9
20260509131522 63 105 1.0 1.0 0.24 0.80 0.80 99 1015.9
20260509131019 63 102 0.0 0.0 0.12 0.78 0.78 99 1016.1
20260509130514 63 99 0.0 0.0 0.07 0.76 0.76 99 1016.1
20260509130011 63 99 0.0 0.0 0.05 0.75 0.75 99 1016.1
20260509125508 63 99 0.0 1.0 0.12 0.75 0.75 99 1016.0
20260509125004 63 49 1.0 1.0 0.07 0.73 0.73 99 1016.1
20260509124501 63 104 0.0 0.0 0.35 0.72 0.72 99 1016.5
20260509123958 63 73 0.0 0.0 0.35 0.72 0.72 99 1016.2
20260509123456 63 93 0.0 0.0 0.00 0.66 0.66 99 1015.9
20260509122951 63 93 0.0 0.0 0.00 0.66 0.66 99 1015.8
20260509122448 63 93 0.0 0.0 0.05 0.66 0.66 99 1015.8
20260509121945 63 93 0.0 0.0 0.83 0.66 0.66 99 1016.1
20260509121442 63 110 0.0 0.0 0.78 0.65 0.65 99 1016.1
20260509120940 63 97 0.0 0.0 0.00 0.52 0.52 99 1015.9
20260509120438 63 97 0.0 0.0 0.00 0.52 0.52 99 1016.0
20260509115935 63 97 0.0 0.0 0.00 0.52 0.52 99 1015.7